This demonstration page uses our WeatherBlox Daily Observations layout. Learn more.

39.92423, -83.80882

Hourly Observations for June 6, 2020

Temp ( °F °C ) Dew Point ( °F °C ) Humidity (%) Winds ( mph kmh ) Pressure ( in mb ) Visibility ( mi km ) Precip ( " mm )
12:56 am 00:56 Clear 71 21.7 66 18.9 84 84 SW 5 7 29.93 1013 10 16.0934 0 0
1:56 am 01:56 Clear 69 20.6 67 19.4 93 93 SW 5 7 29.93 1014 10 16.0934 0 0
2:56 am 02:56 Clear 68 20 67 19.4 96 96 SW 6 9 29.93 1013 10 16.0934 0 0
3:56 am 03:56 Clear 67 19.4 67 19.4 100 100 SW 5 7 29.92 1013 10 16.0934 0 0
4:56 am 04:56 Clear 67 19.4 67 19.4 100 100 WSW 3 6 29.93 1014 10 16.0934 0 0
5:56 am 05:56 Clear 66 18.9 66 18.9 100 100 Calm 29.94 1014 10 16.0934 0 0
6:56 am 06:56 Sunny 65 18.3 65 18.3 100 100 Calm 29.96 1015 10 16.0934 0 0
7:56 am 07:56 Sunny 72 22.2 70 21.1 94 94 SW 3 6 29.96 1015 10 16.0934 0 0
8:56 am 08:56 Sunny 76 24.4 70 21.1 82 82 VRB 3 6 29.98 1015 10 16.0934 0 0
9:56 am 09:56 Sunny 78 25.6 70 21.1 76 76 Calm 29.98 1015 10 16.0934 0 0
10:56 am 10:56 Sunny 81 27.2 70 21.1 69 69 NE 5 7 29.98 1015 10 16.0934 0 0
11:56 am 11:56 Partly Cloudy 83 28.3 70 21.1 65 65 NNW 9 15 29.99 1016 10 16.0934 0 0
12:56 pm 12:56 Partly Cloudy 84 28.9 68 20 59 59 WNW 9 15 29.99 1016 10 16.0934 0 0
1:56 pm 13:56 Mostly Sunny 85 29.4 65 18.3 51 51 NW 7 11 29.97 1015 10 16.0934 0 0
2:56 pm 14:56 Sunny 87 30.6 65 18.3 48 48 WNW 9 15 29.97 1015 10 16.0934 0 0
3:56 pm 15:56 Mostly Sunny 87 30.6 63 17.2 45 45 WNW 12 19 29.96 1014 10 16.0934 0 0
4:56 pm 16:56 Sunny 86 30 61 16.1 43 43 NW 13 20 29.94 1014 10 16.0934 0.12 3.048
5:56 pm 17:56 Partly Cloudy 86 30 59 15 40 40 NW 15 24 29.93 1014 10 16.0934 0 0
6:56 pm 18:56 Sunny 84 28.9 57 13.9 40 40 NW 12 19 29.93 1013 10 16.0934 0.01 0.254
7:56 pm 19:56 Sunny 81 27.2 55 12.8 41 41 NNW 10 17 29.93 1013 10 16.0934 0.33 8.382
8:56 pm 20:56 Sunny 78 25.6 49 9.4 36 36 NNW 8 13 29.93 1014 10 16.0934 0 0
9:56 pm 21:56 Clear 73 22.8 50 10 44 44 NNW 6 9 29.96 1015 10 16.0934 0 0
10:56 pm 22:56 Clear 71 21.7 52 11.1 51 51 NNW 5 7 29.99 1016 10 16.0934 0 0
11:56 pm 23:56 Clear 69 20.6 51 10.6 53 53 NNW 6 9 30 1016 10 16.0934 0 0

Powered by AerisWeather